Regional Weather Roundup
Issued by NWS

Home | Current Version | Previous Version | Text Only | Print | Product List | Glossary Off
Versions: 1 2 3 4 5 6 7 8 9 10 11 12 13 14 15 16 17 18 19 20 21 22 23 24 25 26 27 28 29 30 31 32 33 34 35 36 37 38 39 40 41 42 43 44 45 46 47 48 49 50

946
ASUS44 KMEG 060410
RWRTN
TENNESSEE HOURLY STATE WEATHER ROUNDUP
NATIONAL WEATHER SERVICE MEMPHIS TN
1000 PM CST FRI FEB 05 2016

TNZ002-004-019-021-049-052-054-088>092-060500-
WEST TENNESSEE

CITY           SKY/WX    TMP DP  RH WIND       PRES   REMARKS
MEMPHIS INTL   MOCLDY    40  24  53 CALM      30.38F
NWS MEMPHIS      N/A     36 N/A N/A MISG        N/A
JACKSON        MOCLDY    32  27  81 CALM      30.38R
DYERSBURG      PTCLDY    41  21  45 S3        30.38F
UNION CITY     CLEAR     37  25  60 CALM      30.35S
PARIS          CLEAR     36  21  55 S3        30.36S
LEXINGTON      CLEAR     34  21  60 CALM      30.36R
$$

TNZ008-025-027-028-033-062-065-066-060500-
NORTH MIDDLE TENNESSEE

CITY           SKY/WX    TMP DP  RH WIND       PRES   REMARKS
NASHVILLE      MOCLDY    35  22  58 S6        30.38S WCI  30
CLARKSVILLE    PTCLDY    37  23  56 CALM      30.37R
SMYRNA         CLOUDY    33  25  73 SE3       30.40S
COOKEVILLE     CLEAR     28  25  86 CALM      30.37R
CROSSVILLE     CLOUDY    30  17  58 CALM      30.36S
$$

TNZ061-075-076-078-094-096-097-060500-
SOUTH MIDDLE TENNESSEE

CITY           SKY/WX    TMP DP  RH WIND       PRES   REMARKS
FAYETTEVILLE   CLEAR     36  19  51 E3        30.38R
TULLAHOMA      CLEAR     28  23  80 CALM      30.38S
WINCHESTER     CLEAR     27  21  80 CALM      30.39S
MCMINNVILLE    CLEAR     30  25  80 CALM      30.37S
COLUMBIA       CLEAR     34  27  75 CALM      30.36R
SHELBYVILLE    CLEAR     34  23  64 E5        30.39S WCI  30
$$

TNZ017-018-042-046-047-060500-
NORTHEAST TENNESSEE

CITY           SKY/WX    TMP DP  RH WIND       PRES   REMARKS
TRI CITIES     CLOUDY    26  19  74 CALM      30.38S
$$

TNZ012-013-036-069-073-074-060500-
CENTRAL EAST TENNESSEE

CITY           SKY/WX    TMP DP  RH WIND       PRES   REMARKS
KNOXVILLE      CLOUDY    32  20  61 N3        30.38F
OAK RIDGE      CLOUDY    30  21  69 CALM      30.40F
GATLINBURG       N/A     27  18  69 CALM      30.38F
MORRISTOWN     PTCLDY    28  21  74 CALM      30.37S
$$

TNZ083-085-099-060500-
SOUTHEAST TENNESSEE

CITY           SKY/WX    TMP DP  RH WIND       PRES   REMARKS
CHATTANOOGA    CLOUDY    34  25  69 CALM      30.39S
$$

SKY/WX REPORTED AS FAIR MEANS FEW OR NO CLOUDS BELOW
12 THOUSAND FEET.





USA.gov is the U.S. government's official web portal to all federal, state and local government web resources and services.